[[{"header":{"parameterUnit":"m.s-1","parameterCategory":1,"la1":30.2991,"la2":30.254,"lo1":-89.0895,"lo2":-89.0444,"dy":0.0017,"dx":0.0017,"nx":28,"ny":28,"refTime":"2024-03-23T03:00:00:Z","depth":0,"parameterNumber":2,"parameterNumberName":"U-component_of_WINDS"},"data":[0,0,0,0,0,0,0,0,0,0,0,0,0,0,0,0,0,0,0,0,0,0,0,0,0,0,0,0,0,0,0,0,0,0,0,0,0,0,0,0,0,0,0,0,0,0,0,0,0,0,0,0,0,0,0,0,0,0,-4.9723,-4.9723,0,-4.9785,-4.9786,-4.9787,-4.9697,-4.9693,-4.969,-4.9687,-4.9754,-4.9758,-4.9763,0,0,0,0,0,0,0,0,0,0,0,0,0,-4.953,-4.9534,-4.9723,-4.9723,-4.9724,-4.9785,-4.9786,-4.9787,-4.9697,-4.9693,-4.9689,-4.9686,-4.9752,-4.9758,-4.9764,0,0,0,0,0,0,0,0,0,0,0,0,0,-4.9605,-4.9535,-4.9722,-4.9687,-4.9684,-4.9785,-4.9786,-4.9787,-4.9698,-4.9693,-4.9688,-4.9684,-4.975,-4.9757,-4.9764,-4.9904,0,0,-4.9786,-4.9789,0,0,0,0,0,0,0,0,-4.9601,-4.9612,-4.9691,-4.9689,-4.9687,-4.9728,-4.9742,-4.9826,-4.9699,-4.9693,-4.9687,-4.9682,-4.9749,-4.9756,-4.9778,-4.9907,-4.991,-4.9787,-4.9791,-4.9794,-4.9796,0,0,0,0,0,0,0,-4.9596,-4.9609,-4.9747,-4.9693,-4.969,-4.9669,-4.9674,-4.9758,-4.9747,-4.9693,-4.9687,-4.9695,-4.9747,-4.9772,-4.9779,-4.9911,-4.9786,-4.9793,-4.9797,-4.98,-5.0158,-5.0163,0,0,0,0,0,0,-4.9595,-4.9605,-4.9745,-4.9749,-4.9631,-4.9676,-4.9682,-4.972,-4.9746,-4.9745,-4.9699,-4.9691,-4.9762,-4.9771,-4.9781,-4.9946,-4.9794,-4.9801,-4.9805,-5.0153,-5.0159,-5.0165,0,0,0,0,0,0,-4.9591,-4.9608,-4.9743,-4.9676,-4.9691,-4.9685,-4.9727,-4.9723,-4.9748,-4.9751,-4.9749,-4.9726,-4.9759,-4.9771,-4.9874,-4.9947,-4.9804,-4.981,-5.0147,-5.0155,-5.0162,-5.0277,0,0,0,0,0,0,-4.9586,-4.9607,-4.9659,-4.9677,-4.9695,-4.9833,-4.9732,-4.9728,-4.976,-4.975,-4.9775,-4.9775,-4.9756,-4.9864,-4.9881,-4.9954,-4.9816,-5.014,-5.015,-5.016,-5.0266,-5.0287,-5.0305,0,0,0,0,0,-4.9579,-4.9689,-4.9662,-4.9679,-4.9759,-4.9838,-4.9848,-4.9823,-4.9766,-4.9819,-4.9821,-4.9774,-4.9937,-4.9875,-4.9894,-4.997,-5.0135,-5.0147,-5.0159,-5.0257,-5.0283,-5.0305,0,0,0,0,0,0,-4.9678,-4.969,-4.966,-4.9779,-4.9808,-4.9822,-4.9887,-4.9851,-4.9897,-4.9885,-4.9854,-4.9861,-4.997,-4.9981,-4.9912,-5.0107,-5.0027,-5.0043,-5.0095,-5.012,-5.0139,-5.0133,-4.9822,0,0,0,0,0,-4.9714,-4.9776,-4.9783,-4.9888,-4.9904,-4.9894,-4.9927,-4.9906,-4.9934,-4.9946,-4.9956,-4.9987,-5.0045,-5.0083,-5.0137,-5.0269,-5.0273,-5.0331,-5.0351,-5.0367,-5.038,-5.0451,-5.0476,-5.0204,-5.0204,-5.0203,0,0,-4.9788,-4.9803,-4.9843,-4.9908,-4.9928,-4.9993,-4.9904,-4.9977,-5.0025,-4.9957,-5.0054,-5.0063,-5.0096,-5.0214,-5.0266,-5.0226,-5.0457,-5.0382,-5.0395,-5.0399,-5.0466,-5.0491,-5.0514,-5.0212,-5.021,-5.0209,0,0,-4.9956,-4.9974,-5.0062,-5.0085,-5.0116,-5.0109,-5.0131,-5.0152,-5.0154,-5.0252,-5.0202,-5.0261,-5.0362,-5.0387,-5.0413,-5.0595,-5.0554,-5.0614,-5.0716,-5.0785,-5.0807,-5.0825,-5.0889,-5.0913,-5.0628,-5.0629,-5.0629,0,-5.0044,-5.014,-5.0113,-5.0189,-5.0219,-5.0162,-5.0252,-5.0276,-5.0324,-5.0346,-5.0301,-5.0427,-5.0445,-5.0568,-5.0613,-5.0637,-5.0661,-5.0609,-5.0806,-5.0824,-5.0841,-5.0902,-5.0926,-5.0636,-5.0635,-5.0634,-5.0633,0,-5.0247,-5.0314,-5.0382,-5.0429,-5.0468,-5.0551,-5.0538,-5.0581,-5.0558,-5.0557,-5.0657,-5.0678,-5.0734,-5.0763,-5.0741,-5.0884,-5.0858,-5.081,-5.0728,-5.0875,-5.0931,-5.0954,-5.0645,-5.0643,-5.0641,-5.0639,0,0,-5.0474,-5.0508,-5.0533,-5.0554,-5.0587,-5.0639,-5.0721,-5.0776,-5.0814,-5.0851,-5.0918,-5.1007,-5.0963,-5.0993,-5.0975,-5.1036,-5.1179,-5.098,-5.0981,-5.1015,-5.1337,-5.1371,-5.1398,-5.1153,-5.1157,-5.1161,-5.1334,0,-5.0641,-5.078,-5.076,-5.0895,-5.0957,-5.0906,-5.0978,-5.1006,-5.1009,-5.1063,-5.1066,-5.1129,-5.1067,-5.1085,-5.1144,-5.1149,-5.1242,-5.1136,-5.1216,-5.1219,-5.1206,-5.1427,-5.1463,-5.1624,-5.1356,-5.1359,-5.1362,0,-5.0852,-5.0896,-5.1037,-5.1061,-5.1086,-5.1151,-5.1201,-5.1254,-5.1287,-5.1284,-5.1319,-5.1291,-5.1374,-5.1294,-5.1409,-5.1338,-5.137,-5.1378,-5.1384,-5.1388,-5.1297,-5.1435,-5.1675,-5.1699,-5.1397,-5.1394,-5.1392,0,-5.1002,-5.1097,-5.1193,-5.1214,-5.1245,-5.1291,-5.1307,-5.1334,-5.137,-5.1415,-5.1438,-5.1493,-5.1522,-5.1567,-5.1554,-5.1497,-5.1673,-5.1591,-5.1672,-5.1673,-5.1708,-5.1706,-5.1955,-5.1735,-5.1734,-5.1734,-5.1733,0,-5.1187,-5.1275,-5.1261,-5.132,-5.1418,-5.1396,-5.1494,-5.1504,-5.153,-5.1591,-5.1552,-5.161,-5.1591,-5.165,-5.1642,-5.1738,-5.1753,-5.1753,-5.1749,-5.1755,-5.1755,-5.1773,-5.176,-5.174,-5.1739,-5.1737,-5.1736,0,-5.1369,-5.1363,-5.1465,-5.1487,-5.1495,-5.1566,-5.1586,-5.1642,-5.1643,-5.1721,-5.1739,-5.174,-5.1807,-5.18,-5.1875,-5.187,-5.1989,-5.1973,-5.1978,-5.1973,-5.2054,-5.2046,-5.2321,-5.2356,-5.2116,-5.2118,-5.212,0,-5.1486,-5.1553,-5.1583,-5.162,-5.1639,-5.1701,-5.1737,-5.172,-5.1759,-5.1803,-5.1855,-5.1919,-5.1968,-5.2078,-5.2086,-5.2144,-5.2128,-5.2221,-5.2136,-5.214,-5.2127,-5.2122,-5.2129,-5.2236,-5.2239,-5.2241,-5.2243,0,-5.1695,-5.1689,-5.1742,-5.1795,-5.184,-5.1881,-5.1918,-5.1952,-5.1939,-5.1986,-5.2053,-5.2092,-5.217,-5.2233,-5.2289,-5.2306,-5.2273,-5.2271,-5.2292,-5.2297,-5.2295,-5.2296,-5.202,-5.2263,-5.2261,-5.226,-5.2259,-5.2258,-5.1846,-5.1903,-5.1933,-5.1994,-5.2021,-5.2057,-5.2112,-5.212,-5.2176,-5.2237,-5.2225,-5.2301,-5.2335,-5.2406,-5.243,-5.249,-5.2456,-5.2488,-5.2496,-5.2503,-5.2511,-5.2289,-5.2501,-5.25,-5.25,-5.2499,-5.2499,0,-5.205,-5.2068,-5.2125,-5.2178,-5.2227,-5.2193,-5.2233,-5.2276,-5.2344,-5.2378,-5.2428,-5.2507,-5.257,-5.2585,-5.2645,-5.2691,-5.2677,-5.2707,-5.2702,-5.2707,-5.2539,-5.2513,-5.2717,-5.2717,-5.2717,-5.2717,-5.2717,-5.2717,-5.2162,-5.2256,-5.2255,-5.2363,-5.2381,-5.2455,-5.2481,-5.2515,-5.2542,-5.2632,-5.2684,-5.2693,-5.272,-5.2783,-5.284,-5.2843,-5.2866,-5.2901,-5.2898,-5.274,-5.2718,-5.2697,-5.2673,-5.2907,-5.2907,-5.306,-5.3062,-5.3063]},{"header":{"parameterUnit":"m.s-1","parameterCategory":1,"la1":30.2991,"la2":30.254,"lo1":-89.0895,"lo2":-89.0444,"dy":0.0017,"dx":0.0017,"nx":28,"ny":28,"refTime":"2024-03-23T03:00:00:Z","depth":0,"parameterNumber":3,"parameterNumberName":"V-component_of_WINDS"},"data":[0,0,0,0,0,0,0,0,0,0,0,0,0,0,0,0,0,0,0,0,0,0,0,0,0,0,0,0,0,0,0,0,0,0,0,0,0,0,0,0,0,0,0,0,0,0,0,0,0,0,0,0,0,0,0,0,0,0,3.1677,3.1677,0,3.1676,3.1676,3.1676,3.171,3.1711,3.1712,3.1713,3.1707,3.1706,3.1705,0,0,0,0,0,0,0,0,0,0,0,0,0,3.1704,3.1703,3.1677,3.1677,3.1677,3.1676,3.1676,3.1676,3.171,3.1711,3.1713,3.1714,3.1707,3.1706,3.1704,0,0,0,0,0,0,0,0,0,0,0,0,0,3.1696,3.1703,3.1677,3.1694,3.1695,3.1676,3.1676,3.1676,3.171,3.1712,3.1713,3.1714,3.1707,3.1706,3.1704,3.1666,0,0,3.1699,3.1699,0,0,0,0,0,0,0,0,3.1697,3.1695,3.1691,3.1693,3.1694,3.1695,3.1683,3.1673,3.171,3.1704,3.1713,3.1715,3.1701,3.17,3.1697,3.1666,3.1666,3.1699,3.1698,3.1698,3.1697,0,0,0,0,0,0,0,3.1697,3.1695,3.1676,3.1691,3.1693,3.17,3.1701,3.1681,3.1695,3.1705,3.1707,3.1707,3.1702,3.1698,3.1697,3.1666,3.1699,3.1698,3.1697,3.1696,3.1605,3.1604,0,0,0,0,0,0,3.1696,3.1696,3.1676,3.1676,3.1699,3.1699,3.1699,3.1693,3.1695,3.1697,3.1706,3.1709,3.17,3.1699,3.1697,3.1653,3.1698,3.1696,3.1695,3.1607,3.1605,3.1603,0,0,0,0,0,0,3.1696,3.1694,3.1676,3.1687,3.1685,3.1697,3.169,3.1692,3.1689,3.1696,3.1698,3.17,3.1701,3.1699,3.1674,3.1653,3.1696,3.1694,3.1608,3.1606,3.1604,3.1565,0,0,0,0,0,0,3.1697,3.1694,3.168,3.1686,3.1684,3.1655,3.1688,3.1691,3.1686,3.169,3.1691,3.1692,3.1702,3.1677,3.1673,3.1652,3.1693,3.161,3.1607,3.1605,3.1569,3.1562,3.1557,0,0,0,0,0,3.1698,3.1668,3.168,3.1677,3.1668,3.1654,3.1653,3.1667,3.1685,3.1671,3.1676,3.1692,3.1657,3.1674,3.167,3.1648,3.1612,3.1608,3.1605,3.1571,3.1563,3.1557,0,0,0,0,0,0,3.1657,3.1669,3.1682,3.1653,3.1653,3.166,3.1642,3.1658,3.165,3.1654,3.167,3.167,3.1642,3.1643,3.1662,3.1612,3.1637,3.1633,3.1613,3.1605,3.16,3.1599,3.1692,0,0,0,0,0,3.1645,3.1634,3.1644,3.1618,3.1617,3.163,3.1624,3.1636,3.1635,3.1634,3.1637,3.1634,3.1622,3.1614,3.1604,3.1569,3.157,3.1553,3.1547,3.1542,3.1537,3.152,3.1513,3.1592,3.1592,3.1593,0,0,3.1619,3.1625,3.1616,3.161,3.1611,3.1598,3.1629,3.1614,3.1604,3.1631,3.1608,3.1611,3.1608,3.1579,3.1566,3.1579,3.1516,3.1538,3.1534,3.1532,3.1516,3.1508,3.1502,3.159,3.1591,3.1591,0,0,3.1566,3.1569,3.1548,3.1549,3.1551,3.156,3.1555,3.156,3.1563,3.1542,3.1562,3.155,3.1529,3.1527,3.1524,3.1472,3.1486,3.1468,3.1436,3.1419,3.1413,3.1407,3.1389,3.1382,3.1464,3.1464,3.1464,0,3.1533,3.1516,3.1535,3.1519,3.1515,3.1542,3.152,3.1519,3.1517,3.1513,3.1528,3.1504,3.1504,3.1475,3.1463,3.1459,3.1453,3.1467,3.1413,3.1407,3.1402,3.1385,3.1378,3.1462,3.1462,3.1462,3.1462,0,3.1476,3.1464,3.1446,3.1446,3.1441,3.1421,3.1436,3.1429,3.1441,3.1448,3.1426,3.1428,3.1419,3.1413,3.1423,3.1386,3.1394,3.141,3.1435,3.1392,3.1376,3.1369,3.1458,3.1459,3.146,3.146,0,0,3.1394,3.1407,3.14,3.1401,3.1405,3.1396,3.1378,3.1372,3.1365,3.1362,3.1347,3.1331,3.1347,3.1343,3.1354,3.1339,3.1298,3.1357,3.1358,3.1346,3.1257,3.1244,3.1236,3.1309,3.1307,3.1306,3.1257,0,3.1343,3.1315,3.1332,3.1301,3.129,3.1316,3.1301,3.1302,3.1308,3.1299,3.1306,3.1294,3.1316,3.1314,3.13,3.1306,3.128,3.131,3.1294,3.1293,3.1293,3.1227,3.1213,3.1166,3.1251,3.1249,3.1249,0,3.1279,3.1276,3.1245,3.1253,3.1249,3.1235,3.1232,3.1223,3.1224,3.123,3.1227,3.1242,3.1224,3.125,3.1226,3.1246,3.124,3.1242,3.1241,3.1239,3.1267,3.1223,3.1151,3.1144,3.1239,3.124,3.124,0,3.1223,3.1211,3.1192,3.1191,3.1201,3.119,3.1193,3.1196,3.1192,3.1188,3.1185,3.1179,3.1175,3.1169,3.1182,3.1199,3.1155,3.1182,3.1159,3.1159,3.1147,3.1148,3.1073,3.1145,3.1145,3.1145,3.1145,0,3.1163,3.1142,3.1167,3.1154,3.1132,3.1152,3.1129,3.1135,3.1138,3.1126,3.1148,3.1136,3.1154,3.1144,3.1154,3.1132,3.113,3.1134,3.1137,3.1132,3.1131,3.1127,3.1131,3.1143,3.1144,3.1144,3.1144,0,3.1096,3.1112,3.1092,3.1103,3.1106,3.1089,3.1098,3.1086,3.1096,3.1081,3.1078,3.1092,3.1081,3.1094,3.1084,3.1091,3.1061,3.1069,3.1061,3.1063,3.1039,3.1041,3.0959,3.0949,3.1028,3.1027,3.1026,0,3.1056,3.1042,3.1053,3.1048,3.105,3.1041,3.1038,3.1057,3.1052,3.1053,3.1041,3.1033,3.1028,3.1009,3.1017,3.101,3.1017,3.0989,3.1016,3.1012,3.1017,3.1017,3.1016,3.0983,3.0982,3.0981,3.0981,0,3.0985,3.0994,3.0989,3.0986,3.0982,3.0981,3.0981,3.0975,3.0995,3.0988,3.0979,3.0975,3.0966,3.0957,3.0953,3.0954,3.097,3.0973,3.0967,3.0961,3.0957,3.0959,3.1046,3.0974,3.0975,3.0975,3.0976,3.0976,3.093,3.0919,3.0925,3.0919,3.0922,3.0922,3.0912,3.0921,3.0914,3.091,3.0921,3.0909,3.0912,3.0908,3.0908,3.0898,3.091,3.0901,3.0899,3.0897,3.0893,3.096,3.0897,3.0897,3.0898,3.0898,3.0898,0,3.086,3.0866,3.086,3.0861,3.0856,3.0874,3.0875,3.0869,3.0859,3.0861,3.0856,3.0846,3.0838,3.0847,3.084,3.0831,3.0838,3.0829,3.0829,3.0829,3.0883,3.0888,3.0823,3.0823,3.0823,3.0823,3.0823,3.0823,3.0822,3.0804,3.0814,3.0798,3.0804,3.0794,3.0793,3.0793,3.0795,3.0783,3.0778,3.0784,3.0789,3.0783,3.0777,3.0779,3.0776,3.0763,3.0768,3.0818,3.0825,3.0832,3.0838,3.0763,3.0762,3.0716,3.0715,3.0715]}]]